Weather History for Clinton-Sherman, OK

Change the Weather History Date:

Wednesday, February 6, 2013

  Actual Average Record
Temperature  
Mean Temperature 57 °F -  
Max Temperature 66 °F 49 °F 73 °F (2007)
Min Temperature 48 °F 29 °F 5 °F (2014)
Degree Days  
Heating Degree Days 8    
Growing Degree Days 7 (Base 50)    
Moisture  
Dew Point 51 °F    
Average Humidity 89    
Maximum Humidity 100    
Minimum Humidity 57    
Precipitation  
Precipitation 0.00 in - - ()
Sea Level Pressure  
Sea Level Pressure 29.92 in    
Wind  
Wind Speed 13 mph (SSE)    
Max Wind Speed 24 mph    
Max Gust Speed 32 mph    
Visibility 5 miles    
Events Fog , Rain    
Averages and records for this station are not official NWS values.
T = Trace of Precipitation, MM = Missing Value Source: NWS Daily Summary

Daily Weather History Graph

Daily Weather History Graph

Search for Another Location

Airport:

Trip Planner

Search our weather history database for the weather conditions in past years. The results will help you decide how hot, cold, wet, or windy it might be!

Date:

Astronomy

Feb. 06, 2013 Rise Set
Actual Time 7:31 AM CST 6:10 PM CST
Civil Twilight 7:05 AM CST 6:36 PM CST
Nautical Twilight 6:35 AM CST 7:07 PM CST
Astronomical Twilight 6:05 AM CST 7:36 PM CST
Moon 4:12 AM CST (2/6) 2:34 PM CST (2/6)
Length of Visible Light 11h 31m
Length of Day
10h 38m
Waning Crescent, 17% of the Moon is Illuminated
Feb 6
Waning Crescent
Feb 10
New
Feb 17
First Quarter
Feb 25
Full
Mar 4
Last Quarter

Hourly Weather History & Observations

Time (CST) Temp. Dew Point Humidity Pressure Visibility Wind Dir Wind Speed Gust Speed Precip Events Conditions
12:00 AM 48.2 °F 48.2 °F 100% 30.03 in 0.5 mi South 8.1 mph - N/A Fog Fog
12:48 AM 50.0 °F 48.2 °F 94% 30.03 in 0.2 mi South 12.7 mph - 0.00 in Fog , Rain Light Rain
1:20 AM 50.0 °F 48.2 °F 94% 30.02 in 1.0 mi South 11.5 mph - N/A   Mist
1:28 AM 50.0 °F 48.2 °F 94% 30.02 in 3.0 mi South 12.7 mph - N/A   Overcast
1:53 AM 50.0 °F 50.0 °F 100% 29.99 in 3.0 mi South 10.4 mph - N/A   Overcast
2:13 AM 51.8 °F 50.0 °F 94% 30.01 in 4.0 mi South 9.2 mph - N/A   Overcast
2:53 AM 50.0 °F 48.9 °F 96% 29.98 in 8.0 mi South 11.5 mph - N/A   Overcast
3:53 AM 51.1 °F 48.0 °F 89% 29.97 in 8.0 mi South 9.2 mph - N/A   Overcast
4:53 AM 51.1 °F 48.0 °F 89% 29.96 in 8.0 mi South 11.5 mph - N/A   Overcast
5:53 AM 51.1 °F 48.0 °F 89% 29.97 in 7.0 mi South 10.4 mph - N/A   Overcast
6:20 AM 51.8 °F 48.2 °F 88% 29.99 in 5.0 mi South 8.1 mph - N/A   Overcast
6:29 AM 51.8 °F 48.2 °F 88% 29.99 in 4.0 mi South 8.1 mph - N/A   Overcast
6:42 AM 51.8 °F 48.2 °F 88% 29.99 in 1.8 mi South 9.2 mph - N/A   Overcast
6:48 AM 50.0 °F 48.2 °F 94% 29.99 in 0.8 mi South 9.2 mph - 0.00 in Rain Light Rain
7:13 AM 50.0 °F 48.2 °F 94% 29.99 in 0.5 mi South 8.1 mph - 0.00 in Fog , Rain Light Rain
7:53 AM 50.0 °F 50.0 °F 100% 29.98 in 0.2 mi South 8.1 mph - 0.00 in Fog , Rain Light Rain
8:50 AM 51.8 °F 51.8 °F 100% 29.99 in 1.0 mi South 10.4 mph - 0.00 in   Overcast
8:53 AM 52.0 °F 51.1 °F 97% 29.97 in 1.2 mi SSE 10.4 mph - 0.00 in   Overcast
8:58 AM 51.8 °F 51.8 °F 100% 29.98 in 0.5 mi SSE 9.2 mph - N/A Fog Fog
9:37 AM 53.6 °F 51.8 °F 94% 29.98 in 0.8 mi SSE 12.7 mph - N/A   Overcast
9:53 AM 53.1 °F 52.0 °F 96% 29.98 in 2.0 mi SSE 12.7 mph - N/A   Overcast
10:05 AM 53.6 °F 51.8 °F 94% 29.98 in 4.0 mi SSE 11.5 mph - N/A   Overcast
10:30 AM 53.6 °F 53.6 °F 100% 29.98 in 6.0 mi South 13.8 mph - N/A   Overcast
10:33 AM 53.6 °F 53.6 °F 100% 29.97 in 6.0 mi SSE 17.3 mph - N/A   Overcast
10:53 AM 54.0 °F 53.1 °F 97% 29.96 in 7.0 mi South 16.1 mph - N/A   Overcast
11:10 AM 55.4 °F 51.8 °F 88% 29.96 in 7.0 mi South 19.6 mph - N/A   Overcast
11:18 AM 55.4 °F 51.8 °F 88% 29.96 in 7.0 mi South 17.3 mph - N/A   Overcast
11:27 AM 55.4 °F 51.8 °F 88% 29.96 in 7.0 mi South 17.3 mph - N/A   Overcast
11:53 AM 57.0 °F 51.1 °F 81% 29.93 in 7.0 mi South 19.6 mph - N/A   Overcast
12:02 PM 57.2 °F 51.8 °F 82% 29.94 in 7.0 mi South 16.1 mph - N/A   Overcast
12:53 PM 57.0 °F 51.1 °F 81% 29.89 in 7.0 mi South 12.7 mph - N/A   Overcast
1:53 PM 60.1 °F 51.1 °F 72% 29.85 in 8.0 mi South 15.0 mph - N/A   Overcast
2:39 PM 64.4 °F 50.0 °F 59% 29.84 in 10.0 mi South 16.1 mph - N/A   Scattered Clouds
2:53 PM 64.0 °F 50.0 °F 60% 29.81 in 10.0 mi South 15.0 mph - N/A   Partly Cloudy
3:53 PM 66.9 °F 51.1 °F 57% 29.78 in 10.0 mi South 18.4 mph 24.2 mph N/A   Clear
4:53 PM 66.9 °F 51.1 °F 57% 29.77 in 10.0 mi South 18.4 mph - N/A   Clear
5:53 PM 63.0 °F 53.1 °F 70% 29.78 in 10.0 mi SE 16.1 mph - N/A   Clear
6:53 PM 59.0 °F 53.1 °F 81% 29.80 in 9.0 mi SE 11.5 mph - N/A   Clear
7:53 PM 57.9 °F 53.1 °F 84% 29.79 in 8.0 mi SE 12.7 mph - N/A   Clear
8:40 PM 55.4 °F 53.6 °F 94% 29.81 in 4.0 mi SE 21.9 mph 27.6 mph N/A   Scattered Clouds
8:48 PM 57.2 °F 55.4 °F 94% 29.81 in 3.0 mi SE 20.7 mph 32.2 mph N/A   Mostly Cloudy
8:53 PM 57.0 °F 55.0 °F 93% 29.79 in 3.0 mi SE 23.0 mph 29.9 mph N/A   Mostly Cloudy
9:53 PM 55.9 °F 54.0 °F 93% 29.81 in 4.0 mi SSE 23.0 mph - N/A   Overcast
10:33 PM 55.4 °F 53.6 °F 94% 29.82 in 5.0 mi SSE 19.6 mph - N/A   Mostly Cloudy
10:53 PM 55.0 °F 53.1 °F 93% 29.80 in 5.0 mi SE 17.3 mph - N/A   Mostly Cloudy
11:14 PM 55.4 °F 53.6 °F 94% 29.82 in 6.0 mi SSE 21.9 mph 27.6 mph N/A   Scattered Clouds
11:53 PM 55.9 °F 53.1 °F 90% 29.79 in 7.0 mi SSE 24.2 mph - N/A   Partly Cloudy